Weather Roundup
Issued by NWS Springfield, MO

Home | Current Version | Previous Version | Text Only | Print | Product List | Glossary On
Versions: 1 2 3 4 5 6 7 8 9 10 11 12 13 14 15 16 17 18 19 20 21 22 23 24 25 26 27 28 29 30 31 32 33 34 35 36 37 38 39 40 41 42 43 44 45 46 47 48 49 50
000
NZUS99 KSGF 012207
HRRSGF

HOURLY WEATHER
NATIONAL WEATHER SERVICE SPRINGFIELD MO
500 PM CDT WED OCT 01 2014

......SGF CWA......

CITY           SKY/WX    TMP DP  RH WIND       PRES   REMARKS
SPRINGFIELD    MOSUNNY   83  65  54 S13       29.76F
JOPLIN         CLOUDY    81  66  60 S14       29.74R THUNDER
WEST PLAINS    PTSUNNY   82  66  58 SE10      29.85R
ROLLA          PTSUNNY   86  61  42 S15       29.77F
OSAGE BEACH    PTSUNNY   84  63  48 S10       29.74F
BRANSON        MOSUNNY   86  64  48 S13       29.81S

......SURROUNDING SGF CWA......

CITY           SKY/WX    TMP DP  RH WIND       PRES   REMARKS
CHANUTE        PTSUNNY   78  69  73 SE8       29.70F
PARSONS        LGT RAIN  79  67  66 SE5       29.71F
COFFEYVILLE    PTSUNNY   78  71  79 E8        29.69F
EMPORIA        MOSUNNY   82  69  64 SE12      29.69S
GROVE OK       PTSUNNY   86  64  48 S16G23    29.75R
ROGERS AR      MOSUNNY   83  66  56 SE12G23   29.80F
SILOAM SPRINGS SUNNY     84  64  51 S16G23    29.79S
HARRISON AR    SUNNY     82  68  62 S13       29.82S
NEAR YELLVILLE MOSUNNY   86  64  48 S5        29.81R

......KANSAS AND MISSOURI......

CITY           SKY/WX    TMP DP  RH WIND       PRES   REMARKS
KANSAS CTY INT PTSUNNY   78  68  71 SE5       29.73R
DOWNTOWN KC    PTSUNNY   79  69  71 E7        29.70R
COLUMBIA       TSTM      68  67  96 W15       29.82R FOG
SEDALIA        PTSUNNY   69  65  86 E12G18    29.76F
ST JOSEPH      PTSUNNY   78  67  68 SE7       29.71F
ST LOUIS       PTSUNNY   87  62  43 SE15      29.79F
SPIRIT OF STL  MOSUNNY   84  63  49 VRB5      29.76F
KIRKSVILLE     PTSUNNY   68  66  93 SE7       29.78F FOG
WICHITA        MOSUNNY   91  60  35 S17       29.64F HX  90
TOPEKA         CLOUDY    83  67  58 S6        29.69R
OLATHE         CLOUDY    77  69  76 E5        29.71R THUNDER

......TENNESSEE......

CITY           SKY/WX    TMP DP  RH WIND       PRES   REMARKS
MEMPHIS        CLOUDY    87  64  46 SE9       29.88S
NASHVILLE      MOSUNNY   86  55  34 E7        29.93S

......ARKANSAS.......

CITY           SKY/WX    TMP DP  RH WIND       PRES   REMARKS
FAYETTEVILLE   MOSUNNY   83  67  58 S17       29.79F
FT SMITH       SUNNY     87  68  52 S8        29.77S HX  90
LITTLE ROCK    MOSUNNY   87  69  54 S10       29.82S HX  91

......OKLAHOMA.......

CITY           SKY/WX    TMP DP  RH WIND       PRES   REMARKS
TULSA          PTSUNNY   90  67  46 S22       29.67F HX  93
PONCA CITY     SUNNY     92  61  35 S13G24    29.63F HX  92
MCALESTER      MOSUNNY   88  67  49 S14G21    29.75S HX  91
OKLAHOMA CITY  MOSUNNY   93  62  35 S17G25    29.68F HX  93

......IOWA............

CITY           SKY/WX    TMP DP  RH WIND       PRES   REMARKS
DES MOINES     CLOUDY    71  63  75 S10       29.76R
QUAD CITIES    CLOUDY    71  60  68 VRB3      29.80F

......ILLINOIS........

CITY           SKY/WX    TMP DP  RH WIND       PRES   REMARKS
QUINCY         TSTM      65  64  97 CALM      29.87R VSB 3/4
CHICAGO        PTSUNNY   67  52  58 SE13      29.89F



USA.gov is the U.S. government's official web portal to all federal, state and local government web resources and services.